Location: Pedimozza
(42.0500°N, 9.3500°E)
Time: 04:28:31
(UTC+00:00)

Resurs 01 Rocket - Pass Details

Date: 19 August 2019
Orbit: 635 x 643 km, 98.0° (Epoch: 14 October)

Event Time Altitude Azimuth Distance (km) Brightness Sun altitude
Exits shadow 20:16:45 17° 198° (SSW) 1,595 3.4 -20.1°
Maximum altitude 20:19:45 41° 261° (W) 924 2.7 -20.5°
Drops below altitude 10° 20:23:57 10° 333° (NNW) 2,030 5.2 -21.1°
Sets 20:26:16 0° 340° (NNW) 2,944 6.1 -21.4°
